Wind_Speed
18 21 24 18 20 22 26 25 28 33 29 31 33 33 30 37 33 40 36 41 33 31 21 37 46 51 43 46 45 38 36 29 29 34 24 24 19 16 14 13 11 8 8 9
23 31 29 29 26 26 24 27 30 31 28 29 32 39 35 25 40 36 38 33 39 32 25 33 41 42 51 46 46 38 32 32 30 26 23 18 12 11 10 9 6 6 5 10
27 31 29 31 14 17 25 30 28 29 29 27 27 35 29 29 36 36 42 35 38 39 29 28 34 33 51 29 47 38 29 30 29 27 26 23 23 22 17 13 8 10 7 13
21 19 17 26 32 24 26 20 21 24 30 22 20 11 32 28 30 38 36 41 38 41 32 33 35 31 38 45 48 45 30 31 30 29 31 32 30 27 21 15 14 10 14 9
37 28 27 27 35 15 21 22 24 19 17 19 20 10 35 25 31 36 36 43 31 36 34 39 39 31 29 46 31 29 33 30 31 34 35 32 30 27 18 15 18 13 18 16
38 20 18 23 17 12 16 18 21 13 14 7 29 17 20 31 34 33 39 38 33 38 36 42 37 30 33 31 34 37 40 34 38 40 39 32 26 22 20 20 17 18 20 18
29 15 8 11 12 8 16 10 5 4 4 6 11 17 34 28 32 37 43 40 29 39 39 46 38 33 33 35 42 48 43 38 41 42 38 30 29 24 18 21 17 19 19 16
17 15 12 12 15 15 12 11 4 4 3 4 10 17 30 32 25 36 42 40 30 43 39 44 41 39 38 38 43 48 43 40 42 42 36 34 28 23 20 20 20 16 18 18
12 14 29 15 12 12 8 10 15 10 20 6 10 26 21 33 33 34 38 39 37 43 44 38 41 39 39 39 40 45 43 42 41 39 37 32 25 22 19 17 13 17 17 18
13 20 17 25 11 15 11 5 6 4 4 2 12 19 22 17 36 28 50 45 49 45 46 40 42 43 42 42 41 48 46 44 42 39 35 30 26 23 20 14 11 13 15 15
17 13 31 22 16 10 9 8 7 7 8 3 4 4 10 10 18 40 48 50 47 51 44 38 50 44 35 33 40 39 43 45 42 39 33 28 24 20 13 11 11 13 14 13
18 13 21 27 23 10 21 11 6 0 7 7 4 10 13 9 15 26 29 45 40 52 44 38 50 41 37 37 32 44 44 42 42 38 37 30 15 11 14 15 14 13 12 14
21 11 18 21 18 13 12 6 10 3 18 11 6 10 13 7 8 24 43 39 44 49 41 43 49 46 39 40 46 43 51 45 38 36 33 22 19 15 15 14 9 9 12 17
21 19 15 14 27 32 38 21 26 9 9 8 12 15 13 11 9 11 37 33 46 42 37 48 44 44 41 43 41 40 49 37 34 29 27 22 17 15 13 7 6 10 14 14
18 22 20 31 16 21 19 27 8 11 9 14 28 20 12 13 11 12 21 32 39 37 43 51 50 43 36 36 45 40 42 34 31 28 19 21 17 14 7 4 8 11 11 8
13 16 33 24 19 16 11 43 19 12 17 27 32 24 13 7 8 17 17 25 28 36 36 36 39 27 32 21 44 50 38 26 20 18 24 22 17 8 1 5 8 10 9 9
14 17 21 14 30 12 11 29 24 23 16 21 26 18 15 17 9 11 17 16 21 27 33 27 34 22 23 30 41 11 13 15 15 23 18 12 6 2 5 7 10 8 5 6
18 14 9 16 24 4 10 5 22 24 20 17 16 22 22 23 22 8 1 20 8 9 13 17 16 22 23 21 23 21 23 24 24 19 14 8 3 3 5 7 4 3 2 4
19 11 9 8 14 14 9 20 22 16 16 21 15 14 16 15 15 14 5 9 2 7 4 6 18 23 29 26 21 23 24 22 20 16 10 4 2 5 6 2 3 2 3 3
12 6 9 12 5 2 11 21 3 3 7 11 13 12 13 9 11 8 10 8 15 18 18 15 20 16 21 22 21 22 25 22 16 11 7 5 7 7 4 4 4 4 4 5
13 7 8 9 5 10 20 22 6 6 7 11 12 10 9 9 9 8 2 8 7 8 15 15 13 14 16 20 22 23 20 18 13 9 9 10 9 8 5 4 5 2 6 7
7 9 8 7 5 7 22 22 15 8 10 10 7 9 7 6 7 10 5 11 16 13 14 17 21 23 27 22 23 20 16 15 16 13 11 10 8 6 6 5 3 4 7 7
5 9 11 7 12 14 17 24 19 13 13 8 4 6 5 6 6 8 4 12 9 16 19 16 17 19 24 24 22 17 18 18 15 13 12 9 6 4 3 2 3 4 4 4
9 12 13 14 9 16 18 18 17 12 12 6 4 5 2 2 5 7 2 9 11 19 16 16 17 18 18 24 23 20 17 15 13 11 8 6 7 7 6 5 7 5 4 4
15 12 12 14 15 13 13 16 20 14 14 7 8 4 2 3 4 6 5 5 13 17 19 24 18 17 17 22 20 17 15 12 10 10 9 6 3 5 7 9 6 7 3 3
6 12 11 15 18 20 16 17 21 14 8 7 10 8 7 5 1 2 3 3 6 15 23 20 19 25 31 26 20 14 12 12 11 7 8 8 10 12 9 9 6 5 3 2
Wind_Direction
323 287 279 276 278 290 286 280 279 277 285 282 279 261 252 247 252 236 234 235 224 207 229 227 196 191 190 209 214 195 206 206 209 214 197 206 194 206 208 212 217 211 234 272
295 282 299 276 272 273 266 272 271 279 277 276 272 278 248 252 240 240 225 232 229 217 228 225 219 229 203 199 210 200 197 200 203 205 198 197 192 193 200 198 201 236 240 264
290 282 292 289 273 286 265 262 278 275 285 282 267 277 267 253 238 234 227 222 219 217 227 232 226 240 218 182 211 198 197 194 192 188 181 175 169 173 183 202 238 265 267 266
295 316 288 299 287 279 270 273 286 279 274 279 246 289 267 238 233 227 228 221 219 217 211 232 229 223 243 246 214 200 194 190 189 183 174 173 179 182 195 214 248 230 251 267
317 302 311 282 279 290 280 272 275 290 280 282 258 255 263 221 222 223 225 214 219 217 207 224 222 216 240 226 191 203 204 192 187 181 182 188 189 193 207 233 243 255 268 295
330 352 307 320 284 283 274 293 300 275 261 250 242 208 270 218 215 211 212 211 217 216 206 213 217 209 209 196 194 207 204 194 184 184 192 196 207 213 220 233 246 253 271 277
349 3 356 332 280 272 259 277 326 322 185 237 249 210 241 212 204 207 203 202 207 205 210 208 208 211 213 209 201 201 199 196 190 195 202 209 220 226 225 231 225 239 264 277
342 341 351 341 307 279 271 252 166 275 269 325 274 235 236 219 204 214 206 199 203 197 203 206 209 211 217 217 204 197 198 197 197 202 208 216 218 219 215 227 231 248 282 288
332 305 323 350 307 283 254 261 277 237 259 276 253 256 251 224 204 202 208 200 202 195 195 205 206 210 210 212 205 199 199 199 200 206 208 209 203 203 214 230 248 262 266 284
328 306 346 348 331 302 250 275 290 229 307 285 274 222 219 231 227 224 215 209 199 197 199 203 212 207 214 210 205 201 201 200 200 202 204 203 200 207 216 230 258 254 277 284
325 316 314 347 334 293 231 217 344 325 266 258 304 291 194 252 222 216 208 218 204 194 194 206 212 221 219 212 197 205 202 199 198 200 199 192 195 202 208 237 260 269 268 280
324 317 308 336 14 357 256 244 10 245 306 257 273 301 234 254 275 231 208 209 210 196 197 204 208 209 203 197 209 203 196 196 198 197 195 198 192 190 220 242 246 266 287 295
341 343 319 348 51 27 353 295 314 15 26 5 352 287 221 326 215 200 194 198 191 190 198 211 204 206 201 201 204 201 197 196 194 195 191 196 191 205 221 233 249 279 283 287
340 333 324 316 299 308 305 282 296 303 40 330 285 295 302 21 109 169 178 188 184 199 212 203 201 200 207 208 213 212 188 189 184 190 186 188 197 207 210 217 262 272 286 316
335 314 331 322 331 337 359 33 341 268 58 46 354 8 8 360 22 125 176 182 199 210 203 209 210 211 209 220 195 214 188 183 182 192 182 199 197 193 192 243 281 297 319 340
343 318 333 341 342 0 360 22 76 59 82 73 29 47 25 224 32 151 153 164 178 193 195 216 186 167 179 158 195 190 185 173 168 178 191 188 180 168 227 282 292 309 320 346
346 324 331 300 347 0 14 24 38 59 68 47 50 47 34 38 64 139 164 144 174 193 195 192 182 188 179 206 222 177 141 125 174 188 179 172 162 222 289 305 302 306 357 324
318 321 314 294 340 39 9 28 27 60 35 30 58 41 23 28 52 48 177 192 135 107 142 160 141 151 179 177 170 181 166 180 179 169 168 163 191 266 305 286 303 16 79 121
331 341 318 318 309 300 29 359 358 21 45 7 19 40 25 25 34 38 74 177 107 25 63 98 120 139 155 170 179 173 168 172 169 161 154 164 241 262 256 233 137 115 129 170
308 333 337 340 323 283 343 355 55 150 41 11 3 3 21 11 1 66 121 128 149 122 125 131 152 171 172 160 161 164 172 168 158 160 163 189 210 213 182 146 143 147 228 247
343 338 326 337 321 304 340 6 32 91 318 359 7 1 3 1 21 24 85 172 191 149 145 133 136 158 184 169 172 174 168 165 165 160 168 182 180 165 157 146 158 240 309 289
339 342 342 338 325 326 335 3 30 3 352 344 358 344 7 12 349 26 103 168 179 173 177 179 184 188 179 186 186 177 168 164 166 172 178 178 172 167 166 167 233 292 307 286
326 340 310 304 306 314 337 344 341 339 352 344 352 345 353 358 5 6 94 160 182 199 198 179 183 182 174 170 163 173 178 181 183 181 177 181 194 183 163 173 317 314 298 293
321 322 307 305 314 313 330 329 327 330 329 309 287 332 328 312 320 331 64 167 174 183 189 199 194 190 184 172 176 180 188 190 186 179 175 170 160 165 197 237 300 272 264 290
276 286 282 285 289 290 306 308 310 333 323 305 246 250 205 252 282 298 309 174 182 196 178 182 181 196 186 189 187 184 187 188 179 172 173 181 199 254 252 271 283 218 235 276
278 272 263 281 286 276 290 301 293 306 307 282 259 246 194 187 215 329 293 236 215 199 197 199 194 191 190 187 186 190 174 169 173 181 185 203 221 233 237 228 191 200 218 283
Height
3064 3062 3058 3057 3058 3055 3052 3048 3044 3042 3044 3045 3042 3039 3038 3046 3048 3045 3049 3052 3058 3067 3076 3079 3071 3087 3088 3097 3100 3110 3116 3120 3124 3130 3132 3138 3141 3147 3150 3154 3158 3159 3160 3163
3059 3055 3054 3051 3050 3048 3045 3043 3039 3038 3039 3040 3036 3032 3033 3037 3041 3041 3043 3045 3053 3060 3066 3076 3079 3084 3084 3087 3096 3107 3113 3117 3122 3125 3133 3137 3143 3148 3150 3153 3155 3156 3157 3159
3053 3048 3050 3045 3043 3045 3041 3038 3036 3036 3034 3034 3033 3026 3026 3028 3033 3035 3036 3041 3047 3055 3060 3068 3069 3069 3076 3047 3087 3095 3106 3113 3119 3123 3128 3133 3137 3139 3144 3149 3151 3153 3151 3153
3046 3045 3044 3042 3037 3036 3032 3034 3030 3029 3030 3027 3031 3028 3017 3019 3023 3029 3032 3035 3042 3048 3055 3062 3066 3066 3063 3067 3062 3075 3100 3110 3117 3120 3123 3127 3130 3136 3141 3146 3148 3148 3148 3149
3038 3037 3034 3032 3028 3031 3028 3028 3024 3023 3022 3022 3022 3027 3008 3014 3015 3022 3027 3034 3038 3045 3053 3056 3061 3071 3074 3070 3079 3089 3099 3107 3114 3117 3120 3124 3128 3131 3137 3142 3144 3144 3145 3144
3036 3031 3029 3027 3025 3027 3025 3024 3020 3017 3019 3017 3011 3023 3005 3006 3009 3016 3022 3028 3035 3041 3049 3054 3060 3070 3078 3081 3084 3092 3099 3104 3109 3113 3116 3121 3125 3128 3133 3139 3139 3142 3141 3144
3030 3029 3027 3023 3023 3025 3023 3022 3020 3018 3016 3011 3006 3011 2997 3002 3005 3011 3015 3021 3028 3037 3045 3050 3057 3060 3068 3072 3079 3086 3094 3098 3102 3106 3111 3116 3120 3125 3129 3134 3137 3138 3140 3142
3034 3026 3026 3024 3026 3023 3021 3020 3020 3018 3010 3006 3000 2992 2990 2999 3003 3012 3012 3018 3025 3033 3039 3043 3049 3056 3062 3069 3075 3080 3086 3092 3099 3104 3109 3112 3118 3122 3126 3130 3132 3135 3137 3137
3038 3029 3026 3023 3022 3022 3019 3019 3017 3014 3009 3014 2996 2987 2993 2995 2999 3003 3011 3016 3020 3028 3034 3039 3045 3054 3062 3066 3072 3079 3085 3090 3097 3103 3106 3110 3115 3119 3123 3126 3131 3132 3133 3133
3041 3033 3024 3022 3021 3017 3018 3018 3015 3013 3005 3001 2989 2983 2987 2992 2995 2999 3004 3010 3017 3023 3030 3038 3042 3051 3057 3062 3068 3074 3081 3088 3093 3098 3102 3108 3112 3116 3119 3123 3126 3128 3127 3127
3043 3039 3023 3021 3018 3016 3017 3017 3014 3014 3009 3004 2999 2984 2986 2988 2990 2991 2995 3000 3009 3016 3024 3034 3036 3044 3052 3059 3066 3074 3081 3086 3089 3093 3098 3104 3108 3111 3116 3118 3122 3124 3124 3122
3042 3038 3028 3020 3015 3012 3014 3016 3009 3005 3004 3000 2997 2985 2983 2986 2985 2984 2985 2994 3003 3015 3017 3031 3032 3040 3047 3054 3064 3068 3071 3078 3082 3090 3094 3099 3104 3107 3113 3116 3117 3117 3118 3117
3043 3041 3031 3019 3015 3017 3017 3015 3012 3007 3004 3004 2999 2991 2988 2987 2978 2978 2984 2992 3002 3009 3020 3021 3029 3037 3047 3052 3055 3058 3059 3065 3075 3085 3092 3096 3101 3104 3108 3111 3112 3114 3114 3114
3044 3042 3039 3036 3032 3026 3014 3014 3009 3011 3002 3003 2998 2987 2990 2981 2974 2980 2985 2995 3004 3011 3017 3015 3024 3031 3040 3047 3047 3046 3036 3065 3071 3083 3087 3094 3098 3101 3105 3107 3108 3110 3109 3107
3045 3038 3037 3031 3023 3023 3017 3009 3007 3009 3003 3002 2995 2989 2992 2985 2984 2986 2990 2994 3002 3009 3014 3011 3019 3027 3031 3033 3039 3046 3054 3062 3068 3077 3083 3095 3099 3101 3101 3103 3104 3104 3104 3105
3048 3040 3030 3019 3019 3019 3017 3010 3009 3010 3005 3003 3000 2994 3002 2987 2992 2993 2992 2999 3004 3003 3008 3015 3023 3024 3031 3034 3041 3026 3046 3059 3065 3077 3088 3093 3095 3094 3096 3098 3099 3099 3100 3102
3045 3044 3039 3024 3015 3013 3017 3022 3008 3014 3016 3016 3008 3013 3012 3006 2999 2999 3001 3001 3008 3014 3018 2998 3019 3022 3036 3044 3042 3049 3049 3059 3068 3078 3084 3086 3088 3090 3093 3095 3095 3095 3098 3101
3045 3041 3039 3029 3022 3019 3028 3027 3023 3021 3016 3011 3010 3009 3008 3007 3008 3007 3005 3009 3012 3019 3017 3015 3016 3024 3038 3049 3052 3055 3056 3063 3071 3076 3082 3084 3087 3089 3091 3091 3092 3093 3095 3097
3045 3040 3036 3033 3027 3022 3026 3024 3024 3026 3023 3017 3012 3010 3010 3010 3012 3012 3015 3017 3016 3019 3022 3023 3024 3030 3039 3046 3052 3052 3056 3065 3071 3075 3077 3082 3085 3088 3087 3089 3091 3092 3093 3096
3044 3041 3038 3030 3027 3023 3024 3027 3024 3025 3025 3022 3017 3013 3013 3015 3018 3019 3019 3018 3021 3021 3025 3029 3029 3038 3045 3048 3052 3056 3061 3066 3069 3074 3077 3081 3084 3086 3087 3088 3089 3090 3093 3095
3044 3042 3039 3037 3033 3024 3021 3019 3021 3025 3031 3022 3021 3019 3017 3016 3019 3019 3020 3019 3021 3023 3028 3029 3033 3044 3048 3051 3055 3057 3061 3065 3069 3074 3078 3081 3084 3084 3084 3085 3087 3090 3092 3095
3048 3045 3043 3040 3037 3033 3029 3023 3022 3030 3029 3023 3022 3020 3019 3020 3019 3020 3022 3024 3026 3028 3031 3034 3039 3044 3048 3051 3056 3060 3064 3069 3070 3071 3075 3079 3081 3080 3082 3084 3087 3089 3092 3094
3049 3049 3048 3047 3042 3038 3033 3030 3027 3024 3023 3022 3023 3020 3019 3020 3020 3021 3024 3025 3027 3030 3033 3037 3042 3047 3050 3053 3057 3061 3065 3067 3070 3072 3073 3075 3077 3080 3081 3084 3088 3090 3092 3091
3047 3045 3046 3045 3041 3038 3035 3033 3029 3027 3024 3022 3023 3022 3021 3021 3021 3021 3023 3027 3028 3031 3034 3038 3042 3046 3049 3052 3055 3060 3063 3064 3066 3069 3072 3076 3078 3078 3081 3084 3089 3091 3090 3089
3046 3045 3043 3041 3038 3037 3035 3032 3030 3029 3025 3023 3023 3024 3023 3022 3023 3023 3022 3025 3028 3032 3035 3039 3043 3044 3047 3052 3056 3060 3063 3064 3067 3070 3072 3074 3075 3079 3083 3085 3087 3087 3087 3087
3039 3039 3039 3038 3037 3034 3033 3031 3028 3028 3026 3023 3022 3022 3023 3023 3023 3023 3024 3025 3027 3030 3034 3036 3040 3043 3047 3052 3056 3061 3063 3064 3067 3069 3070 3073 3076 3079 3082 3083 3084 3085 3084 3084